Weather History for Skagway, AK

Change the Weather History Date:

Wednesday, February 6, 2013

  Actual Average Record
Temperature  
Mean Temperature 32 °F -  
Max Temperature 35 °F 31 °F 46 °F (1993)
Min Temperature 30 °F 24 °F -2 °F (2008)
Degree Days  
Heating Degree Days 32    
Moisture  
Dew Point 22 °F    
Average Humidity 65    
Maximum Humidity 93    
Minimum Humidity 50    
Precipitation  
Precipitation 0.00 in - - ()
Sea Level Pressure  
Sea Level Pressure 29.65 in    
Wind  
Wind Speed 9 mph (NE)    
Max Wind Speed 17 mph    
Max Gust Speed 24 mph    
Visibility 8 miles    
Events Snow    
Averages and records for this station are not official NWS values.
T = Trace of Precipitation, MM = Missing Value Source: NWS Daily Summary

Daily Weather History Graph

Daily Weather History Graph

Search for Another Location

Airport:

Trip Planner

Search our weather history database for the weather conditions in past years. The results will help you decide how hot, cold, wet, or windy it might be!

Date:

Astronomy

Feb. 06, 2013 Rise Set
Actual Time 7:59 AM AKST 4:32 PM AKST
Civil Twilight 7:14 AM AKST 5:17 PM AKST
Nautical Twilight 6:25 AM AKST 6:06 PM AKST
Astronomical Twilight 5:37 AM AKST 6:54 PM AKST
Moon 5:22 AM AKST (2/6) 12:27 PM AKST (2/6)
Length of Visible Light 10h 03m
Length of Day
8h 33m
Waning Crescent, 15% of the Moon is Illuminated
Feb 6
Waning Crescent
Feb 9
New
Feb 17
First Quarter
Feb 25
Full
Mar 4
Last Quarter

Hourly Weather History & Observations

Time (AKST) Temp. Windchill Dew Point Humidity Pressure Visibility Wind Dir Wind Speed Gust Speed Precip Events Conditions
12:53 AM 34.0 °F 24.2 °F 18.0 °F 52% 29.62 in 10.0 mi NE 15.0 mph 24.2 mph N/A   Overcast
1:53 AM 34.0 °F 24.6 °F 18.0 °F 52% 29.62 in 10.0 mi NNE 13.8 mph 20.7 mph N/A   Overcast
3:53 AM 34.0 °F 23.4 °F 17.1 °F 50% 29.61 in 10.0 mi NE 17.3 mph 24.2 mph N/A   Overcast
4:53 AM 33.1 °F 23.4 °F 17.1 °F 52% 29.62 in 10.0 mi NE 13.8 mph - N/A   Overcast
5:53 AM 33.1 °F 24.4 °F 17.1 °F 52% 29.62 in 10.0 mi NE 11.5 mph - N/A   Overcast
6:53 AM 33.1 °F 23.9 °F 17.1 °F 52% 29.62 in 10.0 mi NE 12.7 mph 20.7 mph N/A   Overcast
7:53 AM 33.1 °F 25.5 °F 17.1 °F 52% 29.62 in 10.0 mi NE 9.2 mph 18.4 mph N/A   Overcast
8:53 AM 33.1 °F 26.1 °F 17.1 °F 52% 29.64 in 10.0 mi NE 8.1 mph - N/A   Overcast
9:53 AM 34.0 °F 28.0 °F 18.0 °F 52% 29.64 in 10.0 mi NE 6.9 mph - N/A   Overcast
10:53 AM 34.0 °F 25.5 °F 18.0 °F 52% 29.64 in 10.0 mi NE 11.5 mph - N/A   Overcast
11:53 AM 34.0 °F 25.0 °F 18.0 °F 52% 29.64 in 10.0 mi NE 12.7 mph - N/A   Clear
12:53 PM 35.1 °F 28.6 °F 18.0 °F 50% 29.65 in 10.0 mi NE 8.1 mph - N/A   Mostly Cloudy
1:53 PM 35.1 °F 29.3 °F 19.0 °F 52% 29.66 in 10.0 mi NE 6.9 mph - N/A   Scattered Clouds
2:53 PM 34.0 °F 28.0 °F 24.1 °F 67% 29.66 in 10.0 mi SSW 6.9 mph - N/A   Mostly Cloudy
4:53 PM 33.1 °F - 24.1 °F 70% 29.67 in 10.0 mi Calm Calm - N/A   Overcast
5:53 PM 33.1 °F - 25.0 °F 72% 29.68 in 10.0 mi Calm Calm - N/A   Overcast
6:23 PM 33.8 °F - 24.8 °F 70% 29.68 in 7.0 mi Calm Calm - N/A   Overcast
6:53 PM 33.1 °F - 26.1 °F 75% 29.68 in 8.0 mi Calm Calm - N/A   Overcast
7:53 PM 32.0 °F - 27.0 °F 82% 29.69 in 8.0 mi Calm Calm - 0.00 in   Overcast
8:53 PM 32.0 °F - 28.0 °F 85% 29.69 in 5.0 mi Calm Calm - 0.00 in Snow Light Snow
9:53 PM 32.0 °F - 28.0 °F 85% 29.69 in 8.0 mi Calm Calm - 0.00 in   Overcast
10:53 PM 30.9 °F - 28.9 °F 92% 29.69 in 3.0 mi Calm Calm - 0.00 in Snow Light Snow
11:09 PM 30.2 °F - 28.4 °F 93% 29.69 in 2.0 mi Calm Calm - 0.00 in Snow Light Snow
11:53 PM 30.9 °F - 28.9 °F 92% 29.69 in 2.5 mi Calm Calm - 0.00 in Snow Light Snow